Waco, TX

2:26 AM CST on January 19, 2018 (GMT -0600)
Waco Regional

Weather History for KACT - September, 2013

Change the Weather History Date:

Thursday, September 26, 2013

  Actual Average Record
Temperature  
Mean Temperature 79 °F 74 °F  
Max Temperature 92 °F 86 °F 108 °F (2005)
Min Temperature 65 °F 63 °F 44 °F (1989)
Degree Days  
Heating Degree Days 0 0  
Month to date heating degree days 0 0  
Since 1 July heating degree days 0 0  
Cooling Degree Days 14 10  
Month to date cooling degree days 454 361  
Year to date cooling degree days 2665 2556  
Growing Degree Days 28 (Base 50)    
Moisture  
Dew Point 57 °F    
Average Humidity 54    
Maximum Humidity 81    
Minimum Humidity 26    
Precipitation  
Precipitation 0.00 in 0.11 in 2.84 in (1913)
Month to date precipitation 3.64 2.65  
Year to date precipitation 25.07 24.81  
Sea Level Pressure  
Sea Level Pressure 29.83 in    
Wind  
Wind Speed 9 mph (SSE)    
Max Wind Speed 18 mph    
Max Gust Speed 23 mph    
Visibility 10 miles    
Events      
T = Trace of Precipitation, MM = Missing Value Source: NWS Daily Summary

Daily Weather History Graph

Daily Weather History Graph

Search for Another Location

Airport or City:

Trip Planner

Search our weather history database for the weather conditions in past years. The results will help you decide how hot, cold, wet, or windy it might be!

Date:

Astronomy

Sep. 26, 2013 Rise Set
Actual Time 7:19 AM CDT 7:19 PM CDT
Civil Twilight 6:55 AM CDT 7:44 PM CDT
Nautical Twilight 6:27 AM CDT 8:12 PM CDT
Astronomical Twilight 5:58 AM CDT 8:40 PM CDT
Moon No Moon Rise 1:54 PM CDT (9/26)
Length of Visible Light 12h 48m
Length of Day
12h 00m
Waning Gibbous, 54% of the Moon is Illuminated
Sep 26
Waning Gibbous
Sep 26
Last Quarter
Oct 4
New
Oct 11
First Quarter
Oct 18
Full

Hourly Weather History & Observations

Time (CDT) Temp. Heat Index Dew Point Humidity Pressure Visibility Wind Dir Wind Speed Gust Speed Precip Events Conditions
12:51 AM 75.0 °F - 52.0 °F 44% 29.79 in 10.0 mi SE 6.9 mph - N/A   Clear
1:51 AM 75.0 °F - 52.0 °F 44% 29.79 in 10.0 mi SSE 5.8 mph - N/A   Clear
2:51 AM 77.0 °F - 57.0 °F 50% 29.79 in 10.0 mi SSE 9.2 mph - N/A   Clear
3:51 AM 71.1 °F - 55.9 °F 59% 29.79 in 10.0 mi SSE 4.6 mph - N/A   Clear
4:51 AM 70.0 °F - 60.1 °F 71% 29.79 in 10.0 mi SSW 4.6 mph - N/A   Clear
5:51 AM 70.0 °F - 59.0 °F 68% 29.80 in 10.0 mi South 5.8 mph - N/A   Clear
6:51 AM 66.9 °F - 59.0 °F 76% 29.83 in 10.0 mi Calm Calm - N/A   Clear
7:51 AM 66.0 °F - 60.1 °F 81% 29.84 in 10.0 mi SE 4.6 mph - N/A   Clear
8:51 AM 73.0 °F - 61.0 °F 66% 29.86 in 10.0 mi SE 3.5 mph - N/A   Clear
9:51 AM 80.1 °F 80.6 °F 57.9 °F 47% 29.87 in 10.0 mi South 8.1 mph - N/A   Clear
10:51 AM 84.9 °F 84.4 °F 59.0 °F 41% 29.88 in 10.0 mi South 10.4 mph - N/A   Clear
11:51 AM 89.1 °F 88.2 °F 59.0 °F 36% 29.88 in 10.0 mi South 12.7 mph - N/A   Clear
12:51 PM 91.0 °F 89.7 °F 57.0 °F 32% 29.88 in 10.0 mi South 13.8 mph - N/A   Clear
1:51 PM 91.9 °F 90.8 °F 57.9 °F 32% 29.86 in 10.0 mi South 13.8 mph - N/A   Clear
2:51 PM 91.0 °F 88.7 °F 54.0 °F 28% 29.83 in 10.0 mi South 10.4 mph - N/A   Clear
3:51 PM 91.9 °F - 52.0 °F 26% 29.82 in 10.0 mi South 15.0 mph - N/A   Clear
4:51 PM 91.0 °F 88.5 °F 53.1 °F 27% 29.81 in 10.0 mi South 13.8 mph 18.4 mph N/A   Clear
5:51 PM 90.0 °F 87.5 °F 53.1 °F 28% 29.81 in 10.0 mi SE 11.5 mph - N/A   Clear
6:51 PM 87.1 °F 85.1 °F 54.0 °F 32% 29.81 in 10.0 mi SE 9.2 mph - N/A   Clear
7:51 PM 82.9 °F 82.4 °F 57.0 °F 41% 29.81 in 10.0 mi SSE 9.2 mph - N/A   Clear
8:51 PM 79.0 °F - 59.0 °F 50% 29.83 in 10.0 mi SE 5.8 mph - N/A   Clear
9:51 PM 75.0 °F - 60.1 °F 60% 29.84 in 10.0 mi SE 5.8 mph - N/A   Clear
10:51 PM 75.9 °F - 60.1 °F 58% 29.85 in 10.0 mi SE 6.9 mph - N/A   Scattered Clouds
11:51 PM 78.1 °F - 61.0 °F 56% 29.86 in 10.0 mi SE 12.7 mph - N/A   Mostly Cloudy